Morgantown, WV

3:47 PM EST on December 12, 2017 (GMT -0500)
Morgantown Municipal-Hart

Weather History for KMGW - January, 2012

Change the Weather History Date:

Sunday, January 8, 2012

  Actual Average Record
Temperature  
Mean Temperature 35 °F 31 °F  
Max Temperature 42 °F 39 °F 72 °F (2008)
Min Temperature 28 °F 24 °F -11 °F (1970)
Degree Days  
Heating Degree Days 30 34  
Month to date heating degree days 242 269  
Since 1 July heating degree days 1874 2253  
Cooling Degree Days 0 0  
Month to date cooling degree days 0 0  
Year to date cooling degree days 0 0  
Moisture  
Dew Point 26 °F    
Average Humidity 70    
Maximum Humidity 85    
Minimum Humidity 54    
Precipitation  
Precipitation 0.00 in 0.09 in 1.10 in (1953)
Month to date precipitation 0.18 0.72  
Year to date precipitation 0.18 0.72  
Sea Level Pressure  
Sea Level Pressure 30.29 in    
Wind  
Wind Speed 1 mph (West)    
Max Wind Speed 7 mph    
Max Gust Speed 13 mph    
Visibility 10 miles    
Events      
T = Trace of Precipitation, MM = Missing Value Source: NWS Daily Summary

Daily Weather History Graph

Daily Weather History Graph

Search for Another Location

Airport or City:

Trip Planner

Search our weather history database for the weather conditions in past years. The results will help you decide how hot, cold, wet, or windy it might be!

Date:

Astronomy

Jan. 08, 2012 Rise Set
Actual Time 7:40 AM EST 5:12 PM EST
Civil Twilight 7:10 AM EST 5:42 PM EST
Nautical Twilight 6:37 AM EST 6:15 PM EST
Astronomical Twilight 6:04 AM EST 6:48 PM EST
Moon 4:53 PM EST (1/8) 6:57 AM EST (1/8)
Length of Visible Light 10h 31m
Length of Day
9h 31m
Full, 100% of the Moon is Illuminated
Jan 8
Full
Jan 9
Full
Jan 16
Last Quarter
Jan 23
New
Jan 30
First Quarter

Hourly Weather History & Observations

Time (EST) Temp. Windchill Dew Point Humidity Pressure Visibility Wind Dir Wind Speed Gust Speed Precip Events Conditions
12:53 AM 33.1 °F 30.0 °F 24.1 °F 70% 30.15 in 10.0 mi SSW 3.5 mph - N/A   Clear
1:53 AM 33.1 °F 30.0 °F 25.0 °F 72% 30.17 in 10.0 mi SSW 3.5 mph - N/A   Scattered Clouds
2:53 AM 32.0 °F 28.7 °F 25.0 °F 75% 30.19 in 10.0 mi SSW 3.5 mph - N/A   Scattered Clouds
3:53 AM 30.0 °F 25.2 °F 24.1 °F 79% 30.20 in 10.0 mi South 4.6 mph - N/A   Partly Cloudy
4:53 AM 30.9 °F - 25.0 °F 79% 30.21 in 10.0 mi Calm Calm - N/A   Clear
5:53 AM 28.4 °F - 24.8 °F 86% 30.20 in 10.0 mi Calm Calm - N/A   Partly Cloudy
6:53 AM 30.0 °F - 25.0 °F 82% 30.25 in 10.0 mi Calm Calm - N/A   Overcast
7:53 AM 30.0 °F - 25.0 °F 82% 30.27 in 10.0 mi Calm Calm - N/A   Overcast
8:53 AM 30.9 °F - 27.0 °F 85% 30.30 in 10.0 mi Calm Calm - N/A   Overcast
9:53 AM 33.1 °F - 27.0 °F 78% 30.34 in 10.0 mi Calm Calm - N/A   Overcast
10:53 AM 36.0 °F - 28.0 °F 73% 30.34 in 10.0 mi Calm Calm - N/A   Overcast
11:01 AM 35.6 °F - 28.4 °F 75% 30.31 in 10.0 mi Calm Calm - N/A   Overcast
11:13 AM 37.4 °F 34.9 °F 28.4 °F 70% 30.31 in 10.0 mi Variable 3.5 mph - N/A   Overcast
11:32 AM 37.4 °F 34.9 °F 28.4 °F 70% 30.30 in 10.0 mi NW 3.5 mph - N/A   Overcast
11:53 AM 37.0 °F 34.5 °F 28.9 °F 73% 30.33 in 10.0 mi NNE 3.5 mph - N/A   Overcast
12:53 PM 37.9 °F 35.5 °F 28.0 °F 68% 30.32 in 10.0 mi NNW 3.5 mph - N/A   Overcast
1:53 PM 39.0 °F 35.7 °F 26.1 °F 60% 30.32 in 10.0 mi West 4.6 mph - N/A   Scattered Clouds
2:53 PM 39.0 °F - 25.0 °F 57% 30.32 in 10.0 mi Calm Calm - N/A   Clear
3:53 PM 39.9 °F - 25.0 °F 55% 30.32 in 10.0 mi Calm Calm - N/A   Clear
4:53 PM 39.9 °F - 24.1 °F 53% 30.32 in 10.0 mi Calm Calm - N/A   Clear
5:53 PM 37.0 °F - 24.1 °F 59% 30.33 in 10.0 mi Calm Calm - N/A   Clear
6:53 PM 34.0 °F - 24.1 °F 67% 30.34 in 10.0 mi Calm Calm - N/A   Clear
7:53 PM 32.0 °F - 24.1 °F 73% 30.34 in 10.0 mi Calm Calm - N/A   Clear
8:53 PM 30.9 °F - 24.1 °F 76% 30.35 in 10.0 mi Calm Calm - N/A   Clear
9:53 PM 28.9 °F 25.2 °F 24.1 °F 82% 30.33 in 10.0 mi North 3.5 mph - N/A   Partly Cloudy
10:53 PM 28.9 °F - 25.0 °F 85% 30.33 in 10.0 mi Calm Calm - N/A   Scattered Clouds
11:53 PM 28.9 °F - 25.0 °F 85% 30.32 in 10.0 mi Calm Calm - N/A   Partly Cloudy